Fort Benning, AL

10:33 AM CST on December 17, 2017 (GMT -0600)
Lawson Army Air Field

Weather History for KLSF - December, 2012

Change the Weather History Date:

Monday, December 31, 2012

  Actual Average Record
Temperature  
Mean Temperature 44 °F -  
Max Temperature 60 °F 56 °F 74 °F (2010)
Min Temperature 28 °F 31 °F 15 °F (2000)
Degree Days  
Heating Degree Days 21    
Moisture  
Dew Point 36 °F    
Average Humidity 80    
Maximum Humidity 98    
Minimum Humidity 43    
Precipitation  
Precipitation 0.00 in - - ()
Sea Level Pressure  
Sea Level Pressure 30.31 in    
Wind  
Wind Speed 1 mph (SSW)    
Max Wind Speed 7 mph    
Max Gust Speed -    
Visibility 10 miles    
Events      
Averages and records for this station are not official NWS values.
T = Trace of Precipitation, MM = Missing Value Source: NWS Daily Summary

Daily Weather History Graph

Daily Weather History Graph

Search for Another Location

Airport or City:

Trip Planner

Search our weather history database for the weather conditions in past years. The results will help you decide how hot, cold, wet, or windy it might be!

Date:

Astronomy

Dec. 31, 2012 Rise Set
Actual Time 7:41 AM EST 5:45 PM EST
Civil Twilight 7:14 AM EST 6:12 PM EST
Nautical Twilight 6:43 AM EST 6:43 PM EST
Astronomical Twilight 6:13 AM EST 7:12 PM EST
Moon 9:02 PM EST (12/31) 9:33 AM EST (12/31)
Length of Visible Light 10h 58m
Length of Day
10h 04m
Waning Gibbous, 90% of the Moon is Illuminated
Dec 31
Waning Gibbous
Jan 4
Last Quarter
Jan 11
New
Jan 18
First Quarter
Jan 26
Full

Hourly Weather History & Observations

Time (EST) Temp. Windchill Dew Point Humidity Pressure Visibility Wind Dir Wind Speed Gust Speed Precip Events Conditions
12:55 AM 28.9 °F - 27.3 °F 94% 30.39 in 10.0 mi Calm Calm - N/A   Clear
1:55 AM 30.4 °F - 28.9 °F 94% 30.39 in 10.0 mi Calm Calm - N/A   Partly Cloudy
2:55 AM 28.8 °F - 27.3 °F 94% 30.39 in 10.0 mi Calm Calm - N/A   Clear
3:55 AM 28.8 °F 25.0 °F 28.0 °F 97% 30.40 in 10.0 mi Variable 3.5 mph - N/A   Scattered Clouds
4:55 AM 28.8 °F - 27.5 °F 95% 30.39 in 10.0 mi Calm Calm - N/A   Mostly Cloudy
5:55 AM 28.4 °F - 27.9 °F 98% 30.39 in 10.0 mi Calm Calm - N/A   Partly Cloudy
6:55 AM 29.7 °F - 28.6 °F 96% 30.40 in 10.0 mi Calm Calm - N/A   Overcast
7:55 AM 29.1 °F - 28.4 °F 97% 30.39 in 10.0 mi Calm Calm - N/A   Scattered Clouds
8:55 AM 33.3 °F - 30.9 °F 91% 30.40 in 10.0 mi Calm Calm - N/A   Clear
9:55 AM 39.7 °F - 32.9 °F 77% 30.41 in 10.0 mi Calm Calm - N/A   Clear
10:55 AM 48.4 °F - 32.4 °F 54% 30.40 in 10.0 mi Calm Calm - N/A   Clear
11:55 AM 53.2 °F - 31.1 °F 43% 30.37 in 10.0 mi SW 4.6 mph - N/A   Clear
12:55 PM 56.8 °F - 34.5 °F 43% 30.32 in 10.0 mi South 5.8 mph - N/A   Clear
1:55 PM 59.5 °F - 39.6 °F 48% 30.28 in 10.0 mi WSW 6.9 mph - N/A   Mostly Cloudy
2:55 PM 58.5 °F - 40.6 °F 52% 30.26 in 10.0 mi West 4.6 mph - N/A   Overcast
3:55 PM 60.8 °F - 42.6 °F 51% 30.25 in 10.0 mi Variable 4.6 mph - N/A   Mostly Cloudy
5:55 PM 51.8 °F - 43.7 °F 74% 30.24 in 10.0 mi Calm Calm - N/A   Mostly Cloudy
6:55 PM 49.6 °F - 44.4 °F 82% 30.25 in 10.0 mi SE 3.5 mph - N/A   Overcast
7:55 PM 50.0 °F - 44.6 °F 82% 30.25 in 10.0 mi Calm Calm - N/A   Overcast
8:55 PM 48.4 °F - 44.4 °F 86% 30.23 in 10.0 mi SSE 3.5 mph - N/A   Mostly Cloudy
9:55 PM 46.8 °F - 44.1 °F 90% 30.22 in 10.0 mi Calm Calm - N/A   Mostly Cloudy
10:54 PM 48.2 °F - 44.6 °F 87% 30.19 in 10.0 mi Calm Calm - N/A   Overcast
10:55 PM 47.8 °F - 44.8 °F 89% 30.19 in 10.0 mi Calm Calm - N/A   Overcast
11:06 PM 48.2 °F - 44.6 °F 87% 30.19 in 10.0 mi Calm Calm - N/A   Overcast
11:55 PM 47.3 °F - 44.1 °F 88% 30.17 in 10.0 mi Calm Calm - N/A   Mostly Cloudy